Location: Hamburg
(53.5554°N, 9.9941°E)
Time: 03:23:22
(UTC+02:00)

ISS - Pass Details

Date: 14 May 2021
Orbit: 417 x 422 km, 51.6° (Epoch: 15 June)

Event Time Altitude Azimuth Distance (km) Brightness Sun altitude
Exits shadow 01:17:45 57° 158° (SSE) 501 -3.8 -17.8°
Drops below altitude 10° 01:20:57 10° 92° (E) 1,509 -1.0 -17.8°
Sets 01:23:04 0° 88° (E) 2,376 0.1 -17.8°
